2021-091F (49320 NORAD) Tracking and Keplerian Element Data

This shows tracking and keplerian element data for the satellite.

Feedback or suggestion? Click here.




ElementValue
Catalog49320
Name2021-091F
Epoch Orbit798
Epoch Day340.13133516
Epoch Year2021
RAAN165.181
Inclination97.4599
Eccentricity0.0017576
Argument of Perigee83.4038
Mean Anonmoly55.4687
Mean Motion15.17879956
Decay Rate2.121E-05
L11 49320U 21091F 21340.13133516 .00002121 00000+0 10765-3 0 9991
L22 49320 97.4599 165.1810 0017576 83.4038 55.4687 15.17879956 7984

Live tracking and technical data element details for 2021-091F (NORAD 49320). 2021-091F can be tracked NOW for your location showing map with azimuth and elevation plus other details from your city location.

Track the satellite on the map from your city or location and see movement details for azimuth, elevation, latitude, longitude, range, height, and movement on the map or in text.







IsCatalogInMostPopularTable: catalog: 49320, numindb: 13
Update: records affected: 1



GetName: 49320 2021-091F

Hit Count: updated at: Mon, 06 Dec 2021 13:51:07 GMT